| time (UTC) | temp F | wind direction | speed knots | gust knots | rain 1hr in | rain 24hr in | rain mn in | humidity % | barometer mb |
| 20260510140040 | 54 | 342 | 7.8 | 13.9 | 0.00 | 0.00 | 0.00 | 65 | 1012.9 |
| 20260510135536 | 54 | 24 | 4.3 | 13.0 | 0.00 | 0.00 | 0.00 | 64 | 1013.0 |
| 20260510135033 | 54 | 357 | 6.1 | 13.9 | 0.00 | 0.00 | 0.00 | 63 | 1013.1 |
| 20260510134529 | 54 | 18 | 3.5 | 5.2 | 0.00 | 0.00 | 0.00 | 63 | 1012.9 |
| 20260510134025 | 54 | 41 | 7.8 | 11.3 | 0.00 | 0.00 | 0.00 | 63 | 1013.1 |
| 20260510133521 | 54 | 43 | 4.3 | 11.3 | 0.00 | 0.00 | 0.00 | 64 | 1013.0 |
| 20260510133017 | 54 | 350 | 2.6 | 9.6 | 0.00 | 0.00 | 0.00 | 65 | 1013.1 |
| 20260510132513 | 54 | 103 | 1.7 | 13.0 | 0.00 | 0.00 | 0.00 | 66 | 1013.1 |
| 20260510132009 | 54 | 21 | 4.3 | 12.2 | 0.00 | 0.00 | 0.00 | 65 | 1013.2 |
| 20260510131505 | 55 | 108 | 2.6 | 8.7 | 0.00 | 0.00 | 0.00 | 64 | 1013.2 |
| 20260510131001 | 54 | 46 | 4.3 | 8.7 | 0.00 | 0.00 | 0.00 | 64 | 1013.2 |
| 20260510130457 | 54 | 294 | 2.6 | 9.6 | 0.00 | 0.00 | 0.00 | 65 | 1013.4 |
| 20260510125953 | 54 | 59 | 11.3 | 14.8 | 0.00 | 0.00 | 0.00 | 64 | 1013.2 |
| 20260510125449 | 55 | 92 | 7.0 | 11.3 | 0.00 | 0.00 | 0.00 | 65 | 1013.5 |
| 20260510124945 | 55 | 60 | 6.1 | 7.8 | 0.00 | 0.00 | 0.00 | 64 | 1013.5 |
| 20260510124441 | 54 | 38 | 6.1 | 12.2 | 0.00 | 0.00 | 0.00 | 64 | 1013.3 |
| 20260510123937 | 54 | 22 | 10.4 | 13.0 | 0.00 | 0.00 | 0.00 | 65 | 1013.5 |
| 20260510123432 | 54 | 342 | 7.0 | 14.8 | 0.00 | 0.00 | 0.00 | 65 | 1013.5 |
| 20260510122928 | 54 | 8 | 4.3 | 9.6 | 0.00 | 0.00 | 0.00 | 66 | 1013.7 |
| 20260510122424 | 54 | 26 | 5.2 | 19.1 | 0.00 | 0.00 | 0.00 | 67 | 1013.6 |
| 20260510121920 | 54 | 27 | 3.5 | 13.9 | 0.00 | 0.00 | 0.00 | 67 | 1013.7 |
| 20260510121416 | 54 | 340 | 7.8 | 12.2 | 0.00 | 0.00 | 0.00 | 66 | 1013.5 |
| 20260510120912 | 54 | 36 | 3.5 | 7.8 | 0.00 | 0.00 | 0.00 | 66 | 1013.5 |
| 20260510120408 | 54 | 104 | 1.7 | 11.3 | 0.00 | 0.00 | 0.00 | 67 | 1013.7 |
| 20260510115904 | 54 | 66 | 7.8 | 14.8 | 0.00 | 0.00 | 0.00 | 66 | 1013.6 |
| 20260510115401 | 54 | 2 | 7.8 | 12.2 | 0.00 | 0.00 | 0.00 | 66 | 1013.8 |
| 20260510114857 | 54 | 14 | 5.2 | 11.3 | 0.00 | 0.00 | 0.00 | 66 | 1013.7 |
| 20260510114353 | 54 | 46 | 7.0 | 9.6 | 0.00 | 0.00 | 0.00 | 67 | 1014.0 |
| 20260510113849 | 54 | 84 | 3.5 | 7.8 | 0.00 | 0.00 | 0.00 | 68 | 1013.9 |
| 20260510113345 | 54 | 39 | 5.2 | 8.7 | 0.00 | 0.00 | 0.00 | 67 | 1014.2 |
| 20260510112841 | 54 | 24 | 2.6 | 13.0 | 0.00 | 0.00 | 0.00 | 67 | 1014.0 |
| 20260510112337 | 54 | 64 | 1.7 | 11.3 | 0.00 | 0.00 | 0.00 | 68 | 1014.1 |
| 20260510111833 | 53 | 25 | 3.5 | 11.3 | 0.00 | 0.00 | 0.00 | 68 | 1014.3 |
| 20260510111329 | 54 | 18 | 9.6 | 13.9 | 0.00 | 0.00 | 0.00 | 67 | 1014.2 |
| 20260510110824 | 54 | 358 | 4.3 | 12.2 | 0.00 | 0.00 | 0.00 | 67 | 1014.2 |
| 20260510110320 | 53 | 30 | 8.7 | 12.2 | 0.00 | 0.00 | 0.00 | 67 | 1014.0 |
| 20260510105816 | 54 | 20 | 6.1 | 13.9 | 0.00 | 0.00 | 0.00 | 67 | 1014.5 |
| 20260510105312 | 54 | 48 | 7.0 | 11.3 | 0.00 | 0.00 | 0.00 | 68 | 1014.3 |
| 20260510104809 | 54 | 67 | 3.5 | 6.1 | 0.00 | 0.00 | 0.00 | 67 | 1014.3 |
| 20260510104305 | 54 | 23 | 5.2 | 16.5 | 0.00 | 0.00 | 0.00 | 67 | 1014.3 |
| 20260510103801 | 54 | 27 | 7.8 | 15.6 | 0.00 | 0.00 | 0.00 | 66 | 1014.3 |
| 20260510103257 | 54 | 19 | 7.8 | 12.2 | 0.00 | 0.00 | 0.00 | 67 | 1014.3 |
| 20260510102753 | 54 | 30 | 8.7 | 13.9 | 0.00 | 0.00 | 0.00 | 66 | 1014.4 |
| 20260510102249 | 54 | 17 | 6.1 | 13.9 | 0.00 | 0.00 | 0.00 | 67 | 1014.2 |
| 20260510101745 | 54 | 15 | 12.2 | 15.6 | 0.00 | 0.00 | 0.00 | 67 | 1014.4 |
| 20260510101240 | 54 | 12 | 7.0 | 13.0 | 0.00 | 0.00 | 0.00 | 67 | 1014.3 |
| 20260510100736 | 54 | 321 | 7.8 | 16.5 | 0.00 | 0.00 | 0.00 | 68 | 1014.0 |
| 20260510100232 | 54 | 24 | 5.2 | 16.5 | 0.00 | 0.00 | 0.00 | 68 | 1014.1 |
| 20260510095728 | 54 | 19 | 4.3 | 9.6 | 0.00 | 0.00 | 0.00 | 69 | 1014.0 |
| 20260510095225 | 54 | 50 | 5.2 | 9.6 | 0.00 | 0.00 | 0.00 | 70 | 1014.2 |
| 20260510094721 | 53 | 49 | 6.1 | 13.0 | 0.00 | 0.00 | 0.00 | 70 | 1014.3 |
| 20260510094217 | 54 | 65 | 6.1 | 12.2 | 0.00 | 0.00 | 0.00 | 70 | 1014.2 |
| 20260510093712 | 54 | 4 | 4.3 | 13.9 | 0.00 | 0.00 | 0.00 | 70 | 1014.0 |
| 20260510093208 | 54 | 33 | 5.2 | 7.8 | 0.00 | 0.00 | 0.00 | 70 | 1014.3 |
| 20260510092704 | 54 | 25 | 1.7 | 8.7 | 0.00 | 0.00 | 0.00 | 70 | 1014.3 |
| 20260510092200 | 54 | 334 | 7.0 | 9.6 | 0.00 | 0.00 | 0.00 | 71 | 1014.2 |
| 20260510091656 | 53 | 327 | 7.8 | 12.2 | 0.00 | 0.00 | 0.00 | 71 | 1014.1 |
| 20260510091152 | 53 | 30 | 4.3 | 12.2 | 0.00 | 0.00 | 0.00 | 71 | 1014.5 |
| 20260510090648 | 53 | 13 | 6.1 | 9.6 | 0.00 | 0.00 | 0.00 | 72 | 1014.5 |
| 20260510090144 | 53 | 336 | 3.5 | 9.6 | 0.00 | 0.00 | 0.00 | 71 | 1014.5 |
| 20260510085640 | 53 | 20 | 1.7 | 7.0 | 0.00 | 0.00 | 0.00 | 72 | 1014.4 |
| 20260510085137 | 53 | 68 | 6.1 | 13.9 | 0.00 | 0.00 | 0.00 | 71 | 1014.6 |
| 20260510084633 | 53 | 6 | 2.6 | 9.6 | 0.00 | 0.00 | 0.00 | 72 | 1014.8 |
| 20260510084129 | 53 | 10 | 9.6 | 13.0 | 0.00 | 0.00 | 0.00 | 72 | 1014.8 |
| 20260510083625 | 53 | 44 | 8.7 | 11.3 | 0.00 | 0.00 | 0.00 | 72 | 1015.0 |
| 20260510083121 | 53 | 45 | 7.8 | 13.9 | 0.00 | 0.00 | 0.00 | 72 | 1014.6 |
| 20260510082617 | 52 | 64 | 2.6 | 11.3 | 0.00 | 0.00 | 0.00 | 72 | 1014.9 |
| 20260510082113 | 52 | 358 | 9.6 | 14.8 | 0.00 | 0.00 | 0.00 | 73 | 1014.9 |
| 20260510081609 | 52 | 71 | 4.3 | 13.0 | 0.00 | 0.00 | 0.00 | 74 | 1014.6 |
| 20260510081105 | 52 | 20 | 8.7 | 13.9 | 0.00 | 0.00 | 0.00 | 74 | 1014.6 |
| 20260510080601 | 52 | 42 | 6.1 | 9.6 | 0.00 | 0.00 | 0.00 | 75 | 1014.7 |
| 20260510080057 | 52 | 289 | 3.5 | 13.0 | 0.00 | 0.00 | 0.00 | 75 | 1014.7 |
| 20260510075553 | 52 | 54 | 5.2 | 7.8 | 0.00 | 0.00 | 0.00 | 76 | 1014.5 |
| 20260510075049 | 51 | 27 | 8.7 | 12.2 | 0.00 | 0.00 | 0.00 | 76 | 1014.7 |
| 20260510074545 | 51 | 41 | 7.8 | 13.0 | 0.00 | 0.00 | 0.00 | 76 | 1014.6 |
| 20260510074041 | 51 | 22 | 11.3 | 13.9 | 0.00 | 0.00 | 0.00 | 76 | 1014.7 |
| 20260510073537 | 51 | 84 | 1.7 | 11.3 | 0.00 | 0.00 | 0.00 | 77 | 1014.8 |
| 20260510073033 | 51 | 51 | 5.2 | 7.8 | 0.00 | 0.00 | 0.00 | 78 | 1014.7 |
| 20260510072529 | 51 | 25 | 6.1 | 11.3 | 0.00 | 0.00 | 0.00 | 78 | 1014.7 |
| 20260510072025 | 51 | 17 | 6.1 | 15.6 | 0.00 | 0.00 | 0.00 | 79 | 1014.7 |
| 20260510071521 | 51 | 324 | 2.6 | 13.0 | 0.00 | 0.00 | 0.00 | 79 | 1014.9 |
| 20260510071017 | 50 | 344 | 8.7 | 13.9 | 0.00 | 0.00 | 0.00 | 80 | 1014.8 |
| 20260510070513 | 50 | 351 | 4.3 | 9.6 | 0.00 | 0.00 | 0.00 | 80 | 1014.6 |
| 20260510070009 | 50 | 33 | 6.1 | 15.6 | 0.00 | 0.00 | 0.00 | 80 | 1014.9 |
| 20260510065505 | 50 | 17 | 5.2 | 12.2 | 0.00 | 0.00 | 0.00 | 81 | 1014.9 |
| 20260510065001 | 50 | 8 | 6.1 | 13.0 | 0.00 | 0.00 | 0.00 | 81 | 1014.7 |
| 20260510064457 | 50 | 83 | 6.1 | 12.2 | 0.00 | 0.00 | 0.00 | 81 | 1014.7 |
| 20260510063953 | 50 | 64 | 4.3 | 13.0 | 0.00 | 0.00 | 0.00 | 82 | 1014.8 |
| 20260510063449 | 50 | 291 | 1.7 | 7.8 | 0.00 | 0.00 | 0.00 | 82 | 1014.8 |
| 20260510062945 | 50 | 344 | 2.6 | 3.5 | 0.00 | 0.00 | 0.00 | 82 | 1014.5 |
| 20260510062441 | 49 | 336 | 7.8 | 11.3 | 0.00 | 0.00 | 0.00 | 82 | 1014.7 |
| 20260510061937 | 49 | 32 | 5.2 | 8.7 | 0.00 | 0.00 | 0.00 | 83 | 1014.6 |
| 20260510061433 | 49 | 74 | 1.7 | 11.3 | 0.00 | 0.00 | 0.00 | 83 | 1014.7 |
| 20260510060929 | 50 | 53 | 2.6 | 5.2 | 0.00 | 0.00 | 0.00 | 83 | 1014.7 |
| 20260510060425 | 49 | 33 | 1.7 | 7.8 | 0.00 | 0.00 | 0.00 | 83 | 1014.4 |
| 20260510055921 | 49 | 37 | 2.6 | 9.6 | 0.00 | 0.00 | 0.00 | 83 | 1014.4 |
| 20260510055417 | 49 | 314 | 0.9 | 5.2 | 0.00 | 0.00 | 0.00 | 83 | 1014.4 |
| 20260510054913 | 49 | 18 | 5.2 | 13.9 | 0.00 | 0.00 | 0.00 | 83 | 1014.6 |
| 20260510054409 | 49 | 46 | 8.7 | 11.3 | 0.00 | 0.00 | 0.00 | 83 | 1014.5 |
| 20260510053905 | 49 | 318 | 5.2 | 9.6 | 0.00 | 0.00 | 0.00 | 83 | 1014.3 |
| 20260510053401 | 49 | 42 | 8.7 | 11.3 | 0.00 | 0.00 | 0.00 | 83 | 1014.2 |
| 20260510052857 | 50 | 3 | 7.0 | 9.6 | 0.00 | 0.00 | 0.00 | 83 | 1014.2 |
| 20260510052353 | 49 | 341 | 2.6 | 7.0 | 0.00 | 0.00 | 0.00 | 83 | 1014.4 |
| 20260510051849 | 49 | 350 | 6.1 | 8.7 | 0.00 | 0.00 | 0.00 | 83 | 1014.2 |
| 20260510051345 | 49 | 26 | 3.5 | 9.6 | 0.00 | 0.00 | 0.00 | 83 | 1014.3 |
| 20260510050841 | 49 | 339 | 8.7 | 13.9 | 0.00 | 0.00 | 0.00 | 83 | 1014.3 |
| 20260510050337 | 49 | 28 | 3.5 | 7.0 | 0.00 | 0.00 | 0.00 | 83 | 1014.1 |
| 20260510045833 | 49 | 36 | 6.1 | 12.2 | 0.00 | 0.00 | 0.00 | 83 | 1014.2 |
| 20260510045328 | 49 | 52 | 0.0 | 9.6 | 0.00 | 0.00 | 0.00 | 83 | 1014.3 |
| 20260510044825 | 49 | 32 | 3.5 | 7.0 | 0.00 | 0.00 | 0.00 | 83 | 1014.3 |
| 20260510044321 | 49 | 18 | 3.5 | 9.6 | 0.00 | 0.00 | 0.00 | 84 | 1014.4 |
| 20260510043817 | 49 | 359 | 1.7 | 12.2 | 0.00 | 0.00 | 0.00 | 84 | 1014.5 |
| 20260510043313 | 49 | 52 | 3.5 | 9.6 | 0.00 | 0.00 | 0.00 | 84 | 1014.5 |
| 20260510042809 | 49 | 18 | 4.3 | 8.7 | 0.00 | 0.00 | 0.00 | 84 | 1014.2 |
| 20260510042306 | 49 | 27 | 1.7 | 9.6 | 0.00 | 0.00 | 0.00 | 84 | 1014.5 |
| 20260510041801 | 49 | 341 | 6.1 | 7.0 | 0.00 | 0.00 | 0.00 | 84 | 1014.4 |
| 20260510041257 | 49 | 40 | 7.8 | 12.2 | 0.00 | 0.00 | 0.00 | 85 | 1014.5 |
| 20260510040753 | 49 | 50 | 1.7 | 7.0 | 0.00 | 0.00 | 0.00 | 85 | 1014.3 |
| 20260510040249 | 49 | 19 | 2.6 | 6.1 | 0.00 | 0.00 | 0.00 | 85 | 1014.5 |
| 20260510035745 | 49 | 18 | 4.3 | 7.8 | 0.00 | 0.00 | 0.00 | 85 | 1014.5 |
| 20260510035240 | 49 | 336 | 1.7 | 7.8 | 0.00 | 0.00 | 0.00 | 85 | 1014.4 |
| 20260510034736 | 49 | 346 | 1.7 | 7.0 | 0.00 | 0.00 | 0.00 | 85 | 1014.4 |
| 20260510034232 | 49 | 30 | 5.2 | 8.7 | 0.00 | 0.00 | 0.00 | 85 | 1014.5 |
| 20260510033728 | 49 | 19 | 6.1 | 9.6 | 0.00 | 0.00 | 0.00 | 85 | 1014.8 |
| 20260510033224 | 49 | 28 | 0.9 | 7.8 | 0.00 | 0.00 | 0.00 | 85 | 1014.9 |
| 20260510032720 | 49 | 326 | 3.5 | 6.1 | 0.00 | 0.00 | 0.00 | 84 | 1014.8 |
| 20260510032216 | 49 | 1 | 2.6 | 7.8 | 0.00 | 0.00 | 0.00 | 84 | 1014.8 |
| 20260510031712 | 49 | 319 | 4.3 | 8.7 | 0.00 | 0.00 | 0.00 | 84 | 1014.8 |
| 20260510031208 | 49 | 64 | 0.9 | 5.2 | 0.00 | 0.00 | 0.00 | 85 | 1014.7 |
| 20260510030704 | 49 | 30 | 1.7 | 7.8 | 0.00 | 0.00 | 0.00 | 85 | 1014.8 |
| 20260510030200 | 49 | 329 | 1.7 | 6.1 | 0.00 | 0.00 | 0.00 | 85 | 1014.6 |
| 20260510025656 | 49 | 21 | 4.3 | 6.1 | 0.00 | 0.00 | 0.00 | 85 | 1014.8 |
| 20260510025152 | 49 | 13 | 5.2 | 7.0 | 0.00 | 0.00 | 0.00 | 85 | 1015.1 |
| 20260510024648 | 49 | 355 | 4.3 | 9.6 | 0.00 | 0.00 | 0.00 | 85 | 1015.0 |
| 20260510024144 | 49 | 323 | 1.7 | 7.0 | 0.00 | 0.00 | 0.00 | 85 | 1014.9 |
| 20260510023640 | 49 | 25 | 1.7 | 7.0 | 0.00 | 0.00 | 0.00 | 85 | 1014.6 |
| 20260510023136 | 49 | 23 | 1.7 | 3.5 | 0.00 | 0.00 | 0.00 | 85 | 1014.7 |
| 20260510022632 | 49 | 31 | 7.0 | 9.6 | 0.00 | 0.00 | 0.00 | 85 | 1014.7 |
| 20260510022127 | 49 | 75 | 7.8 | 11.3 | 0.00 | 0.00 | 0.00 | 85 | 1014.6 |
| 20260510021623 | 49 | 322 | 1.7 | 8.7 | 0.00 | 0.00 | 0.00 | 85 | 1014.7 |
| 20260510021119 | 49 | 37 | 3.5 | 11.3 | 0.00 | 0.00 | 0.00 | 85 | 1014.7 |
| 20260510020615 | 49 | 350 | 7.8 | 12.2 | 0.00 | 0.00 | 0.00 | 84 | 1015.0 |
| 20260510020111 | 49 | 21 | 5.2 | 7.8 | 0.00 | 0.00 | 0.00 | 84 | 1015.0 |
| 20260510015607 | 49 | 6 | 5.2 | 9.6 | 0.00 | 0.00 | 0.00 | 84 | 1015.0 |
| 20260510015103 | 49 | 314 | 3.5 | 8.7 | 0.00 | 0.00 | 0.00 | 84 | 1015.1 |
| 20260510014559 | 49 | 6 | 7.0 | 11.3 | 0.00 | 0.00 | 0.00 | 83 | 1015.0 |
| 20260510014055 | 49 | 0 | 3.5 | 7.0 | 0.00 | 0.00 | 0.00 | 83 | 1015.2 |
| 20260510013551 | 49 | 32 | 3.5 | 7.0 | 0.00 | 0.00 | 0.00 | 82 | 1015.0 |
| 20260510013047 | 50 | 43 | 6.1 | 7.8 | 0.00 | 0.00 | 0.00 | 82 | 1015.1 |
| 20260510012543 | 50 | 37 | 6.1 | 7.8 | 0.00 | 0.00 | 0.00 | 81 | 1014.9 |
| 20260510012039 | 50 | 348 | 4.3 | 9.6 | 0.00 | 0.00 | 0.00 | 80 | 1014.9 |
| 20260510011535 | 50 | 330 | 1.7 | 5.2 | 0.00 | 0.00 | 0.00 | 79 | 1015.0 |
| 20260510011031 | 50 | 25 | 5.2 | 7.0 | 0.00 | 0.00 | 0.00 | 78 | 1014.7 |
| 20260510010527 | 51 | 17 | 3.5 | 12.2 | 0.00 | 0.00 | 0.00 | 77 | 1014.8 |
| 20260510010023 | 51 | 343 | 5.2 | 7.0 | 0.00 | 0.00 | 0.00 | 75 | 1015.0 |
| 20260510005519 | 51 | 21 | 5.2 | 9.6 | 0.00 | 0.00 | 0.00 | 73 | 1014.9 |
| 20260510005016 | 51 | 309 | 3.5 | 9.6 | 0.00 | 0.00 | 0.00 | 72 | 1014.8 |
| 20260510004512 | 51 | 41 | 4.3 | 6.1 | 0.00 | 0.00 | 0.00 | 71 | 1014.7 |
| 20260510004008 | 51 | 249 | 3.5 | 8.7 | 0.00 | 0.00 | 0.00 | 70 | 1014.8 |
| 20260510003504 | 51 | 22 | 2.6 | 3.5 | 0.00 | 0.00 | 0.00 | 69 | 1014.7 |
| 20260510003000 | 52 | 28 | 4.3 | 7.0 | 0.00 | 0.00 | 0.00 | 69 | 1014.9 |
| 20260510002456 | 52 | 57 | 2.6 | 6.1 | 0.00 | 0.00 | 0.00 | 69 | 1014.9 |
| 20260510001952 | 52 | 22 | 0.9 | 5.2 | 0.00 | 0.00 | 0.00 | 70 | 1014.8 |
| 20260510001448 | 53 | 325 | 5.2 | 8.7 | 0.00 | 0.00 | 0.00 | 70 | 1015.0 |
| 20260510000944 | 53 | 14 | 1.7 | 7.8 | 0.00 | 0.00 | 0.00 | 71 | 1014.8 |
| 20260510000440 | 53 | 23 | 5.2 | 11.3 | 0.00 | 0.00 | 0.00 | 71 | 1014.8 |
| 20260509235936 | 53 | 356 | 4.3 | 7.0 | 0.00 | 0.00 | 0.00 | 70 | 1014.9 |
| 20260509235432 | 53 | 349 | 2.6 | 8.7 | 0.00 | 0.00 | 0.00 | 70 | 1015.0 |
| 20260509234928 | 54 | 6 | 5.2 | 7.8 | 0.00 | 0.00 | 0.00 | 69 | 1014.9 |
| 20260509234424 | 54 | 18 | 5.2 | 8.7 | 0.00 | 0.00 | 0.00 | 68 | 1014.7 |
| 20260509233920 | 54 | 0 | 4.3 | 7.0 | 0.00 | 0.00 | 0.00 | 66 | 1014.9 |
| 20260509233416 | 54 | 295 | 2.6 | 3.5 | 0.00 | 0.00 | 0.00 | 65 | 1015.0 |
| 20260509232912 | 54 | 311 | 1.7 | 6.1 | 0.00 | 0.00 | 0.00 | 65 | 1015.1 |
| 20260509232408 | 54 | 65 | 2.6 | 7.0 | 0.00 | 0.00 | 0.00 | 64 | 1014.8 |
| 20260509231904 | 54 | 312 | 3.5 | 7.8 | 0.00 | 0.00 | 0.00 | 63 | 1015.0 |
| 20260509231400 | 54 | 18 | 1.7 | 7.8 | 0.00 | 0.00 | 0.00 | 63 | 1015.0 |
| 20260509230856 | 55 | 357 | 1.7 | 6.1 | 0.00 | 0.00 | 0.00 | 63 | 1015.0 |
| 20260509230352 | 55 | 8 | 3.5 | 7.0 | 0.00 | 0.00 | 0.00 | 63 | 1014.7 |
| 20260509225848 | 55 | 30 | 1.7 | 5.2 | 0.00 | 0.00 | 0.00 | 61 | 1015.1 |
| 20260509225343 | 55 | 42 | 7.0 | 7.0 | 0.00 | 0.00 | 0.00 | 60 | 1015.0 |
| 20260509224840 | 55 | 59 | 0.9 | 7.0 | 0.00 | 0.00 | 0.00 | 59 | 1015.0 |
| 20260509224335 | 55 | 340 | 5.2 | 7.0 | 0.00 | 0.00 | 0.00 | 58 | 1014.8 |
| 20260509223831 | 55 | 36 | 0.9 | 6.1 | 0.00 | 0.00 | 0.00 | 57 | 1014.9 |
| 20260509223327 | 56 | 12 | 7.0 | 8.7 | 0.00 | 0.00 | 0.00 | 57 | 1014.8 |
| 20260509222823 | 56 | 90 | 2.6 | 7.0 | 0.00 | 0.00 | 0.00 | 56 | 1015.0 |
| 20260509222319 | 56 | 353 | 1.7 | 5.2 | 0.00 | 0.00 | 0.00 | 55 | 1014.7 |
| 20260509221815 | 56 | 285 | 0.9 | 7.0 | 0.00 | 0.00 | 0.00 | 55 | 1014.8 |
| 20260509221311 | 56 | 32 | 2.6 | 7.0 | 0.00 | 0.00 | 0.00 | 55 | 1014.7 |
| 20260509220807 | 56 | 23 | 2.6 | 6.1 | 0.00 | 0.00 | 0.00 | 55 | 1015.0 |
| 20260509220303 | 56 | 23 | 1.7 | 6.1 | 0.00 | 0.00 | 0.00 | 55 | 1014.9 |
| 20260509215759 | 56 | 20 | 4.3 | 6.1 | 0.00 | 0.00 | 0.00 | 55 | 1014.7 |
| 20260509215256 | 57 | 23 | 1.7 | 6.1 | 0.00 | 0.00 | 0.00 | 55 | 1014.6 |
| 20260509214752 | 57 | 59 | 1.7 | 6.1 | 0.00 | 0.00 | 0.00 | 55 | 1014.8 |
| 20260509214248 | 57 | 51 | 4.3 | 5.2 | 0.00 | 0.00 | 0.00 | 54 | 1014.7 |
| 20260509213744 | 57 | 85 | 1.7 | 3.5 | 0.00 | 0.00 | 0.00 | 54 | 1014.6 |
| 20260509213239 | 57 | 34 | 2.6 | 8.7 | 0.00 | 0.00 | 0.00 | 54 | 1014.9 |
| 20260509212735 | 58 | 46 | 2.6 | 6.1 | 0.00 | 0.00 | 0.00 | 52 | 1014.7 |
| 20260509212231 | 58 | 29 | 4.3 | 6.1 | 0.00 | 0.00 | 0.00 | 51 | 1014.6 |
| 20260509211727 | 58 | 309 | 1.7 | 6.1 | 0.00 | 0.00 | 0.00 | 50 | 1014.4 |
| 20260509211223 | 58 | 59 | 2.6 | 3.5 | 0.00 | 0.00 | 0.00 | 49 | 1014.5 |
| 20260509210719 | 58 | 41 | 1.7 | 3.5 | 0.00 | 0.00 | 0.00 | 49 | 1014.4 |
| 20260509210215 | 58 | 71 | 2.6 | 3.5 | 0.00 | 0.00 | 0.00 | 49 | 1014.4 |
| 20260509205711 | 58 | 65 | 4.3 | 7.0 | 0.00 | 0.00 | 0.00 | 49 | 1014.4 |
| 20260509205208 | 58 | 38 | 3.5 | 8.7 | 0.00 | 0.00 | 0.00 | 48 | 1014.4 |
| 20260509204704 | 58 | 61 | 1.7 | 3.5 | 0.00 | 0.00 | 0.00 | 48 | 1014.3 |
| 20260509204200 | 58 | 48 | 3.5 | 3.5 | 0.00 | 0.00 | 0.00 | 47 | 1014.3 |
| 20260509203656 | 59 | 60 | 2.6 | 5.2 | 0.00 | 0.00 | 0.00 | 47 | 1014.4 |
| 20260509203152 | 59 | 57 | 0.9 | 2.6 | 0.00 | 0.00 | 0.00 | 46 | 1014.3 |
| 20260509202648 | 59 | 55 | 3.5 | 5.2 | 0.00 | 0.00 | 0.00 | 46 | 1014.3 |
| 20260509202144 | 59 | 28 | 3.5 | 6.1 | 0.00 | 0.00 | 0.00 | 45 | 1014.2 |
| 20260509201640 | 59 | 32 | 2.6 | 5.2 | 0.00 | 0.00 | 0.00 | 45 | 1014.1 |
| 20260509201136 | 59 | 53 | 1.7 | 3.5 | 0.00 | 0.00 | 0.00 | 44 | 1014.1 |
| 20260509200632 | 59 | 41 | 3.5 | 5.2 | 0.00 | 0.00 | 0.00 | 43 | 1014.1 |
| 20260509200128 | 60 | 79 | 2.6 | 7.8 | 0.00 | 0.00 | 0.00 | 43 | 1014.2 |
| 20260509195624 | 60 | 58 | 4.3 | 6.1 | 0.00 | 0.00 | 0.00 | 42 | 1014.2 |
| 20260509195120 | 60 | 35 | 2.6 | 6.1 | 0.00 | 0.00 | 0.00 | 41 | 1014.3 |
| 20260509194616 | 60 | 251 | 3.5 | 7.0 | 0.00 | 0.00 | 0.00 | 40 | 1014.2 |
| 20260509194112 | 60 | 46 | 2.6 | 6.1 | 0.00 | 0.00 | 0.00 | 40 | 1013.9 |
| 20260509193608 | 60 | 58 | 0.9 | 6.1 | 0.00 | 0.00 | 0.00 | 40 | 1014.0 |
| 20260509193104 | 60 | 358 | 4.3 | 8.7 | 0.00 | 0.00 | 0.00 | 40 | 1013.7 |
| 20260509192600 | 61 | 70 | 2.6 | 5.2 | 0.00 | 0.00 | 0.00 | 41 | 1013.8 |
| 20260509192056 | 61 | 107 | 7.0 | 9.6 | 0.00 | 0.00 | 0.00 | 40 | 1013.7 |
| 20260509191552 | 61 | 69 | 2.6 | 6.1 | 0.00 | 0.00 | 0.00 | 40 | 1013.8 |
| 20260509191048 | 61 | 37 | 1.7 | 8.7 | 0.00 | 0.00 | 0.00 | 40 | 1013.6 |
| 20260509190544 | 61 | 88 | 7.0 | 9.6 | 0.00 | 0.00 | 0.00 | 40 | 1013.8 |
| 20260509190040 | 62 | 47 | 3.5 | 7.0 | 0.00 | 0.00 | 0.00 | 42 | 1013.5 |
| 20260509185536 | 62 | 72 | 1.7 | 6.1 | 0.00 | 0.00 | 0.00 | 40 | 1013.6 |
| 20260509185031 | 62 | 49 | 4.3 | 6.1 | 0.00 | 0.00 | 0.00 | 40 | 1013.6 |
| 20260509184527 | 62 | 41 | 4.3 | 6.1 | 0.00 | 0.00 | 0.00 | 39 | 1013.6 |
| 20260509184023 | 62 | 100 | 4.3 | 11.3 | 0.00 | 0.00 | 0.00 | 38 | 1013.4 |
| 20260509183519 | 63 | 30 | 4.3 | 7.8 | 0.00 | 0.00 | 0.00 | 39 | 1013.6 |
| 20260509183015 | 63 | 126 | 1.7 | 5.2 | 0.00 | 0.00 | 0.00 | 40 | 1013.6 |
| 20260509182511 | 63 | 97 | 2.6 | 5.2 | 0.00 | 0.00 | 0.00 | 39 | 1013.5 |
| 20260509182007 | 63 | 53 | 5.2 | 7.0 | 0.00 | 0.00 | 0.00 | 40 | 1013.7 |
| 20260509181503 | 63 | 49 | 6.1 | 9.6 | 0.00 | 0.00 | 0.00 | 40 | 1013.5 |
| 20260509180959 | 63 | 92 | 1.7 | 7.0 | 0.00 | 0.00 | 0.00 | 40 | 1013.5 |
| 20260509180455 | 63 | 38 | 3.5 | 7.0 | 0.00 | 0.00 | 0.00 | 40 | 1013.3 |
| 20260509175951 | 63 | 35 | 3.5 | 6.1 | 0.00 | 0.00 | 0.00 | 41 | 1013.2 |
| 20260509175447 | 63 | 24 | 5.2 | 11.3 | 0.00 | 0.00 | 0.00 | 41 | 1013.1 |
| 20260509174944 | 64 | 51 | 4.3 | 9.6 | 0.00 | 0.00 | 0.00 | 41 | 1013.2 |
| 20260509174440 | 64 | 47 | 7.8 | 8.7 | 0.00 | 0.00 | 0.00 | 40 | 1013.1 |
| 20260509173936 | 64 | 58 | 0.9 | 5.2 | 0.00 | 0.00 | 0.00 | 40 | 1013.1 |
| 20260509173432 | 64 | 90 | 4.3 | 13.0 | 0.00 | 0.00 | 0.00 | 40 | 1013.3 |
| 20260509172928 | 65 | 19 | 7.8 | 12.2 | 0.00 | 0.00 | 0.00 | 41 | 1013.0 |
| 20260509172424 | 65 | 13 | 2.6 | 7.0 | 0.00 | 0.00 | 0.00 | 41 | 1013.0 |
| 20260509171920 | 65 | 43 | 4.3 | 11.3 | 0.00 | 0.00 | 0.00 | 41 | 1013.2 |
| 20260509171416 | 65 | 77 | 7.8 | 9.6 | 0.00 | 0.00 | 0.00 | 40 | 1013.1 |
| 20260509170912 | 65 | 86 | 5.2 | 11.3 | 0.00 | 0.00 | 0.00 | 43 | 1013.2 |
| 20260509170408 | 66 | 83 | 6.1 | 8.7 | 0.00 | 0.00 | 0.00 | 42 | 1013.0 |
| 20260509165904 | 66 | 22 | 3.5 | 9.6 | 0.00 | 0.00 | 0.00 | 43 | 1013.0 |
| 20260509165359 | 66 | 89 | 7.0 | 9.6 | 0.00 | 0.00 | 0.00 | 43 | 1013.3 |
| 20260509164856 | 66 | 112 | 2.6 | 7.0 | 0.00 | 0.00 | 0.00 | 43 | 1013.1 |
| 20260509164352 | 66 | 99 | 7.0 | 11.3 | 0.00 | 0.00 | 0.00 | 43 | 1013.1 |
| 20260509163848 | 66 | 78 | 6.1 | 14.8 | 0.00 | 0.00 | 0.00 | 43 | 1013.2 |
| 20260509163344 | 66 | 62 | 5.2 | 8.7 | 0.00 | 0.00 | 0.00 | 43 | 1013.1 |
| 20260509162840 | 66 | 139 | 9.6 | 12.2 | 0.00 | 0.00 | 0.00 | 43 | 1013.2 |
| 20260509162336 | 66 | 182 | 2.6 | 9.6 | 0.00 | 0.00 | 0.00 | 43 | 1013.1 |
| 20260509161832 | 67 | 26 | 5.2 | 8.7 | 0.00 | 0.00 | 0.00 | 43 | 1013.3 |
| 20260509161328 | 67 | 108 | 3.5 | 8.7 | 0.00 | 0.00 | 0.00 | 43 | 1013.3 |
| 20260509160824 | 66 | 92 | 1.7 | 12.2 | 0.00 | 0.00 | 0.00 | 44 | 1013.3 |
| 20260509160320 | 67 | 93 | 8.7 | 13.9 | 0.00 | 0.00 | 0.00 | 43 | 1013.3 |
| 20260509155815 | 67 | 84 | 4.3 | 8.7 | 0.00 | 0.00 | 0.00 | 43 | 1013.4 |
| 20260509155311 | 67 | 44 | 5.2 | 9.6 | 0.00 | 0.00 | 0.00 | 43 | 1013.4 |
| 20260509154807 | 67 | 89 | 5.2 | 7.8 | 0.00 | 0.00 | 0.00 | 43 | 1013.3 |
| 20260509154303 | 67 | 55 | 8.7 | 14.8 | 0.00 | 0.00 | 0.00 | 43 | 1013.3 |
| 20260509153759 | 68 | 65 | 3.5 | 9.6 | 0.00 | 0.00 | 0.00 | 42 | 1013.4 |
| 20260509153255 | 68 | 112 | 3.5 | 9.6 | 0.00 | 0.00 | 0.00 | 43 | 1013.4 |
| 20260509152751 | 67 | 127 | 9.6 | 12.2 | 0.00 | 0.00 | 0.00 | 43 | 1013.6 |
| 20260509152247 | 68 | 74 | 5.2 | 7.8 | 0.00 | 0.00 | 0.00 | 42 | 1013.2 |
| 20260509151743 | 68 | 84 | 1.7 | 9.6 | 0.00 | 0.00 | 0.00 | 42 | 1013.3 |
| 20260509151239 | 69 | 60 | 2.6 | 9.6 | 0.00 | 0.00 | 0.00 | 42 | 1013.1 |
| 20260509150735 | 68 | 69 | 7.8 | 9.6 | 0.00 | 0.00 | 0.00 | 42 | 1013.3 |
| 20260509150231 | 69 | 72 | 3.5 | 8.7 | 0.00 | 0.00 | 0.00 | 41 | 1013.2 |
| 20260509145727 | 69 | 145 | 4.3 | 9.6 | 0.00 | 0.00 | 0.00 | 41 | 1013.2 |
| 20260509145222 | 69 | 329 | 1.7 | 8.7 | 0.00 | 0.00 | 0.00 | 40 | 1013.3 |
| 20260509144718 | 69 | 179 | 6.1 | 8.7 | 0.00 | 0.00 | 0.00 | 39 | 1013.3 |
| 20260509144214 | 69 | 40 | 2.6 | 6.1 | 0.00 | 0.00 | 0.00 | 39 | 1012.9 |
| 20260509143710 | 69 | 58 | 5.2 | 7.8 | 0.00 | 0.00 | 0.00 | 38 | 1013.2 |
| 20260509143206 | 70 | 27 | 1.7 | 2.6 | 0.00 | 0.00 | 0.00 | 37 | 1012.7 |
| 20260509142702 | 69 | 96 | 2.6 | 7.8 | 0.00 | 0.00 | 0.00 | 39 | 1013.0 |
| 20260509142158 | 68 | 154 | 3.5 | 8.7 | 0.00 | 0.00 | 0.00 | 39 | 1013.2 |
| 20260509141654 | 69 | 111 | 4.3 | 7.0 | 0.00 | 0.00 | 0.00 | 38 | 1012.8 |
| 20260509141150 | 70 | 17 | 2.6 | 7.0 | 0.00 | 0.00 | 0.00 | 37 | 1013.0 |
| 20260509140646 | 69 | 99 | 4.3 | 7.8 | 0.00 | 0.00 | 0.00 | 38 | 1013.1 |